World > North America > United States > Mississippi > Sts. Rest

Hourly Sts. Rest, MS Regional Weather

Feedback E-mail the Weather

Quick WX

Sts. Rest, MS Weather Maps

°F °C°F °C
Saints Rest Weather Map
UTC Time: 8/13/2022, 06:23
Your Time:

Sts. Rest, MS Regional Weather

Expires:202208130700;;009376
ASUS44 KJAN 130610
RWRMS 

MISSISSIPPI HOURLY WEATHER ROUNDUP
NATIONAL WEATHER SERVICE JACKSON MS
100 AM CDT SAT AUG 13 2022

NOTE: "FAIR: INDICATES FEW OR NO CLOUDS BELOW 12,000 FEET WITH NO
SIGNIFICANT WEATHER AND/OR OBSTRUCTIONS TO VISIBILITY.


MSZ001>002-007>008-010>013-018>021-025>028-034>036-130700-
NORTHWEST MISSISSIPPI
  
CITY           SKY/WX    TMP DP  RH WIND       PRES   REMARKS
BATESVILLE     FAIR      73  63  68 CALM      30.05F                  
CLARKSDALE     MOCLDY    73  72  94 NE5       30.06F                  
CLEVELAND      FAIR      74  70  85 NE9       30.05S                  
GREENWOOD      CLEAR     75  70  84 N5        30.03S                  
6HR MIN TEMP:  75; 6HR MAX TEMP:  89;                                

GREENVILLE     CLEAR     76  71  85 N8        30.03S                  
6HR MIN TEMP:  76; 6HR MAX TEMP:  87;                                

OLIVE BRANCH   CLEAR     70  63  78 NE6       30.07F                  
OXFORD         PTCLDY    72  64  78 NE5       30.08S                  
TUNICA         CLEAR     67  65  94 N6        30.07S                  
WINONA         FAIR      74  68  80 NE5       30.04R                  
$$


SKY/WX - Weather  TMP - Temperature  DP - Dew Point  RH - Humidity
WIND - Wind Direction/Speed PRES - Barometric Pressure VSB - Visibility
WCI - Wind Chill Index E13G22 Wind - East Wind 13 mph/Gusts of 22 mph

Trending Headlines

Sts. Rest Radar Loop



Sts. Rest Quick Facts


National Two Day Weather Forecast


E-mail the Sts. Rest Weather Forecast

Voice your opinion or tell us about page issues...